Theta_e
285 285 285 285 286 287 288 289 291 294 296 297 300 303 307 307 313 314 312 311 311 308
285 285 285 286 287 287 288 289 291 292 294 295 297 300 307 307 311 311 311 311 310 308
286 287 288 287 286 287 288 289 290 292 294 296 298 300 303 308 310 309 308 309 307 307
287 290 289 287 287 287 289 290 289 291 293 294 295 297 300 305 309 307 305 305 304 302
286 287 289 288 288 290 289 289 288 289 291 292 294 295 298 302 303 302 298 293 296 291
283 284 284 285 285 287 287 287 287 289 289 289 290 291 296 295 295 294 292 291 291 289
282 283 283 284 285 285 285 285 285 286 288 288 289 290 289 289 288 287 287 287 288 288
281 282 282 283 284 284 285 285 285 285 286 286 286 288 289 289 288 286 285 285 286 287
280 281 281 282 283 283 284 285 285 285 285 285 287 292 291 288 286 286 286 285 285 285
279 280 280 281 281 282 283 284 284 284 285 285 285 289 288 287 285 285 284 284 283 283
279 279 280 280 280 281 282 282 283 283 284 284 285 287 285 284 283 281 281 282 282 281
278 278 279 279 279 280 281 281 281 282 283 283 284 285 285 283 281 280 279 280 280 280
279 279 278 278 279 280 280 280 281 281 282 282 283 285 284 283 281 278 278 279 279 281
279 279 279 279 279 279 279 279 279 279 280 281 282 283 284 284 280 278 277 277 277 279
Wind_Speed
18 13 14 16 14 12 12 11 14 14 13 14 14 11 10 11 14 16 20 25 21 15
17 18 16 18 16 13 14 12 14 15 14 12 13 12 10 12 12 13 16 19 21 15
17 17 17 14 14 16 13 13 14 14 12 12 12 12 12 12 13 12 10 10 17 16
15 16 11 11 13 14 15 14 13 11 10 11 11 12 12 14 15 16 15 13 12 12
14 13 11 11 12 13 13 11 11 11 11 13 14 12 13 15 12 14 13 9 11 10
12 11 9 8 7 8 8 8 9 10 11 12 15 14 13 9 9 11 13 12 12 11
12 11 10 8 5 4 2 2 3 6 11 10 10 8 9 12 12 13 13 8 9 11
11 10 10 10 9 7 4 3 3 3 4 4 4 6 12 12 14 16 15 14 8 9
12 11 12 12 11 11 10 9 10 9 7 9 5 11 22 20 15 15 17 15 14 11
12 12 13 13 14 13 12 11 12 13 12 14 12 19 22 27 15 14 21 15 14 13
12 13 13 14 14 15 13 13 12 13 12 14 12 26 22 31 17 18 17 14 14 15
11 12 13 14 14 12 12 14 13 12 13 14 14 25 23 20 19 18 16 13 13 14
11 11 12 12 12 11 11 12 11 14 13 13 12 22 21 17 13 15 13 13 14 20
10 11 11 12 11 11 10 11 12 14 14 14 13 16 22 20 11 11 10 11 10 9
Wind_Direction
276 269 264 262 260 256 250 249 250 246 235 233 232 234 228 231 219 216 207 193 193 190
278 267 261 256 252 253 248 245 246 246 247 249 249 242 248 210 228 205 215 202 192 184
285 273 262 248 247 251 249 245 246 248 240 236 240 238 232 226 214 193 196 220 201 183
294 289 255 243 245 247 248 239 237 246 251 245 244 245 243 247 204 199 190 203 197 197
310 311 287 250 244 243 242 235 232 231 238 256 251 246 245 241 187 185 177 170 166 156
324 321 315 302 284 265 244 234 229 232 234 239 246 247 243 173 165 154 160 145 150 145
333 332 332 330 331 323 221 171 208 235 236 227 224 197 143 126 112 101 86 86 110 129
340 345 354 353 357 353 18 62 72 64 67 82 107 151 131 127 123 116 107 91 93 95
352 359 7 9 12 24 28 37 53 48 60 69 59 130 130 121 111 112 108 106 96 98
359 11 17 21 24 20 26 38 52 57 65 74 77 98 109 108 111 110 94 106 106 97
7 15 20 27 28 32 32 36 43 55 63 77 75 88 87 91 88 84 85 90 97 97
16 18 24 28 29 29 40 43 41 45 52 63 70 82 89 90 86 90 87 89 88 100
23 27 27 26 29 30 40 45 48 52 50 57 71 82 87 87 92 101 93 90 90 96
29 35 30 32 25 29 38 45 46 51 46 50 55 71 81 90 84 95 98 86 86 90